This is the latest recevied weather packets stored in our database for station/object WX4HP-13. If no packets are shown the sender has not sent any weather packets the latest 10 day(s).
| Time | Temp. | Humidity | Pressure | Rain* | Wind** | Luminosity | Snow |
|---|---|---|---|---|---|---|---|
| 1777444496 | 16.67° C | 97% | 1016.3 hPa | 8.13 mm | - | - | - |
| 1777444195 | 16.67° C | 97% | 1016.7 hPa | 7.62 mm | - | - | - |
| 1777443896 | 16.67° C | 97% | 1016.7 hPa | 7.62 mm | - | - | - |
| 1777443595 | 16.67° C | 97% | 1016.9 hPa | 7.87 mm | - | - | - |
| 1777443296 | 16.67° C | 97% | 1017.1 hPa | 8.38 mm | - | - | - |
| 1777442995 | 16.67° C | 97% | 1016.9 hPa | 8.38 mm | - | - | - |
| 1777442695 | 16.67° C | 97% | 1017.1 hPa | 8.38 mm | - | - | - |
| 1777442395 | 16.67° C | 97% | 1017 hPa | 8.13 mm | - | - | - |
| 1777442095 | 16.67° C | 97% | 1017.1 hPa | 7.62 mm | - | - | - |
| 1777441800 | 16.67° C | 97% | 1016.6 hPa | 7.11 mm | - | - | - |
| 1777441495 | 16.67° C | 97% | 1016.3 hPa | 6.86 mm | - | - | - |
| 1777441195 | 16.67° C | 97% | 1016.2 hPa | 6.35 mm | - | - | - |
| 1777440895 | 16.67° C | 97% | 1016.2 hPa | 6.1 mm | - | - | - |
| 1777440595 | 16.67° C | 97% | 1015.9 hPa | 5.33 mm | - | - | - |
| 1777440295 | 16.67° C | 97% | 1016 hPa | 4.57 mm | - | - | - |
| 1777439995 | 16.67° C | 97% | 1016.2 hPa | 3.81 mm | - | - | - |
| 1777439395 | 16.67° C | 97% | 1016.5 hPa | 2.54 mm | - | - | - |
| 1777439098 | 16.67° C | 97% | 1016.5 hPa | 2.54 mm | - | - | - |
| 1777438496 | 16.67° C | 97% | 1016 hPa | 2.54 mm | - | - | - |
| 1777438277 | 16.67° C | 97% | 1015.6 hPa | 2.54 mm | - | - | - |
| 1777438195 | 16.67° C | 97% | 1015.6 hPa | 2.54 mm | - | - | - |
| 1777437896 | 16.67° C | 97% | 1015.4 hPa | 3.05 mm | - | - | - |
| 1777437596 | 16.67° C | 97% | 1015.1 hPa | 2.54 mm | - | - | - |
| 1777436997 | 16.67° C | 96% | 1014.9 hPa | 2.54 mm | - | - | - |
| 1777436096 | 16.67° C | 96% | 1015.1 hPa | 2.29 mm | - | - | - |
* Rain latest hour (hover to see other rain measurements)
** Current wind speed in m/s (hover to see current wind gust speed)